Tracking 22993 objects as of 10-May-2021
HD Live streaming from Space Station
objects crossing your sky now

TITAN 3C TRANSTAGE R/B

Track TITAN 3C TRANSTAGE R/B now!


NORAD ID: 12371
Int'l Code: 1981-025C
Perigee: 35,288.4 km
Apogee: 35,705.7 km
Inclination: 10.7 °
Period: 1,421.0 minutes
Semi major axis: 41868 km
RCS: Unknown
Launch date: March 16, 1981
Source: United States (US)
Launch site: AIR FORCE EASTERN TEST RANGE (AFETR)

Note: This is a ROCKET BODY
aabbcc
Your satellite tracking list
Your tracking list is empty




NASA's NSSDC Master Catalog

Two Line Element Set (TLE):
1 12371U 81025C   21129.09002027 -.00000153  00000-0  00000-0 0  9995
2 12371  10.7050 315.9361 0049836 276.2784  83.0491  1.01339391  8141
Source of the keplerian elements: McCants